Wind_Speed
22 24 26 28 28 23 29 34 32 30 29 26 22 17 15 17 19 23 24 27 26 27 29 31 34 35 33 33 31 27 29 27 29 24 23 23 27 24 27 26 22 24 21
23 20 23 27 27 31 31 30 30 30 27 23 19 15 15 17 21 24 25 27 28 29 30 31 31 32 32 31 30 27 25 25 19 23 24 24 25 25 24 24 22 18 18
23 25 27 29 33 34 35 34 31 29 25 19 13 13 14 25 24 25 27 27 27 29 32 31 30 30 29 29 27 27 23 23 24 24 28 27 27 26 24 24 22 21 27
30 26 31 32 34 34 33 31 29 27 22 15 11 18 24 28 25 24 26 28 29 31 32 32 26 26 30 30 27 26 20 24 25 29 29 29 27 24 24 22 28 33 41
31 32 29 31 35 33 31 30 31 25 20 12 21 25 28 23 23 26 26 28 31 32 28 27 29 24 22 22 23 20 21 24 27 26 27 26 25 24 22 27 34 39 39
31 35 32 35 34 31 31 34 29 23 16 18 23 25 23 22 22 24 23 25 23 25 24 21 23 21 20 19 17 20 23 24 25 26 24 20 21 22 25 34 39 44 39
28 32 35 28 29 33 34 30 25 20 16 21 23 20 22 21 23 21 21 20 21 23 23 19 19 19 21 21 20 21 21 23 24 23 19 16 16 17 26 39 43 44 45
29 32 27 28 32 33 30 26 19 16 20 20 20 20 21 18 19 18 18 20 24 23 19 18 18 18 19 21 21 18 19 20 19 15 18 15 13 13 24 38 45 39 41
28 24 25 31 29 27 24 21 19 18 20 17 16 17 17 15 16 18 19 20 20 19 17 16 15 16 16 19 17 15 18 18 12 12 11 10 10 10 24 40 41 38 42
25 23 26 23 22 24 21 20 19 16 12 12 15 18 17 16 16 18 20 19 21 19 20 19 15 13 14 14 13 14 18 12 9 9 8 7 4 8 24 37 46 42 45
21 24 23 22 21 20 19 16 13 11 13 15 18 19 17 16 16 18 18 21 21 19 19 20 16 15 14 15 15 15 13 7 8 5 6 6 8 15 29 38 41 40 43
22 22 23 22 20 17 17 13 11 13 17 19 19 18 16 12 16 16 16 16 15 15 14 15 14 15 14 13 15 14 10 9 7 6 8 12 14 22 33 34 36 36 39
27 23 23 23 21 16 13 12 15 17 20 18 16 17 17 17 15 15 13 14 14 14 13 16 11 11 11 13 12 12 10 11 9 10 11 16 16 23 31 27 26 27 30
24 21 19 15 13 12 13 14 17 21 18 17 17 17 15 13 12 12 13 12 14 16 14 12 10 11 11 10 12 13 11 10 11 10 15 17 21 26 32 28 27 28 26
15 13 10 9 8 10 15 20 17 14 15 17 19 15 13 12 12 13 12 12 13 14 10 8 8 9 11 13 13 14 11 12 13 13 17 23 24 27 29 31 31 29 25
15 11 10 9 11 18 18 20 18 14 16 16 16 15 14 12 11 11 12 11 11 10 6 7 7 8 9 13 15 15 13 12 12 15 19 23 27 29 34 33 30 27 26
11 9 10 12 17 19 19 19 18 14 12 14 14 13 9 9 10 10 11 12 8 6 5 6 7 6 8 10 14 16 15 15 13 13 17 23 28 31 35 35 31 30 26
7 11 14 17 19 17 16 19 17 13 12 14 15 12 11 10 10 10 10 10 9 6 6 7 8 6 6 9 12 16 15 16 15 14 15 20 25 31 36 38 36 33 29
9 13 15 13 13 12 14 13 12 14 14 15 15 16 13 11 10 9 9 8 8 7 5 7 8 7 7 8 10 12 17 17 16 14 16 18 22 26 31 36 37 36 34
11 11 11 11 11 11 10 10 12 13 12 13 16 15 15 13 12 10 8 7 7 7 6 7 7 6 6 7 9 10 13 16 16 14 15 18 19 23 26 30 34 38 37
8 9 9 8 8 9 10 8 10 10 11 12 12 13 15 15 12 12 9 8 9 8 8 8 8 7 6 7 8 12 14 15 15 14 15 17 19 21 23 24 28 31 35
7 7 5 6 7 8 10 10 10 9 10 10 10 11 13 13 12 11 11 10 10 9 9 8 9 8 7 6 6 9 12 14 15 15 15 15 16 19 21 22 25 28 33
5 6 6 6 6 8 10 10 10 11 11 11 10 9 10 11 10 11 10 12 13 11 11 11 10 9 8 6 6 7 10 11 11 12 13 15 16 17 19 20 23 26 31
8 8 8 7 9 9 10 11 12 12 11 10 9 8 10 11 12 12 11 11 10 9 11 11 10 9 10 9 7 6 7 9 11 11 12 13 16 18 18 19 20 22 26
10 9 11 13 11 12 13 13 11 12 12 11 11 11 10 10 9 10 10 11 10 8 10 11 10 10 10 9 10 9 8 9 8 9 10 11 13 15 17 18 18 18 20
16 16 18 15 13 13 13 13 14 13 11 14 12 12 11 10 10 10 8 9 9 9 9 9 10 11 11 11 11 12 13 11 10 10 11 12 13 14 14 16 17 18 19
Wind_Direction
242 228 221 222 223 204 208 208 208 214 220 227 231 238 266 291 292 295 289 295 292 290 287 286 278 285 281 279 282 278 271 270 269 275 271 281 284 282 283 289 274 265 259
251 247 227 219 212 209 212 216 220 222 225 228 232 247 278 296 292 284 284 285 285 283 282 282 279 283 280 279 280 279 267 262 281 284 288 287 283 280 280 282 280 270 254
248 239 217 219 221 220 219 221 222 224 226 226 238 266 296 304 280 285 290 294 292 283 276 276 280 287 283 280 273 269 249 276 281 274 289 289 291 287 280 271 262 244 228
239 231 228 222 222 224 226 227 225 222 221 219 259 299 298 278 278 286 292 289 282 278 281 289 290 285 280 278 270 268 277 285 275 284 286 291 289 283 267 258 223 207 194
236 230 226 227 231 231 226 221 220 220 213 242 294 290 272 269 285 294 297 295 286 282 287 280 287 284 278 272 265 289 285 289 286 285 289 287 280 271 248 226 203 188 181
234 233 224 227 233 232 219 218 223 210 221 268 275 271 267 280 294 294 292 296 289 283 296 295 285 285 278 265 275 270 280 289 288 288 287 281 282 267 232 203 189 180 165
234 222 219 223 228 216 216 220 210 219 253 270 269 258 270 293 294 296 292 292 284 294 295 286 287 277 271 272 276 278 283 289 288 287 274 275 280 270 234 199 195 197 185
229 224 222 216 213 211 217 209 210 235 258 256 247 269 281 290 296 298 284 282 282 289 287 291 288 280 265 270 279 272 284 289 290 274 274 265 273 275 242 212 184 181 179
228 215 211 211 210 219 202 205 213 225 239 249 270 280 289 296 300 298 294 290 287 292 289 289 281 279 277 275 268 273 286 289 281 279 269 253 268 257 225 197 181 179 168
229 209 204 210 200 196 204 208 220 237 248 268 276 285 288 298 299 292 295 291 290 291 289 291 290 289 284 280 269 280 284 291 276 285 247 245 220 224 215 208 194 184 172
198 195 190 189 189 196 203 212 223 248 265 278 284 284 283 283 284 287 286 286 285 284 283 280 274 274 274 268 260 274 276 266 270 249 216 200 190 199 194 194 197 201 183
189 188 189 186 196 197 205 215 237 256 276 282 288 284 290 279 284 289 287 292 288 289 296 297 278 265 265 261 253 260 261 237 238 210 190 189 186 188 189 195 200 200 197
185 186 195 202 208 212 216 228 251 264 270 272 264 268 269 280 288 286 289 292 287 281 295 297 271 249 264 250 247 249 242 230 220 200 188 186 182 186 185 186 193 199 197
192 201 209 214 218 229 243 259 271 272 264 252 261 265 274 290 290 295 297 295 284 281 285 288 270 254 245 251 239 227 229 230 218 207 195 188 180 184 184 184 176 179 187
183 189 203 222 245 270 284 278 274 270 252 250 266 265 278 280 292 306 306 291 284 282 286 280 268 257 238 220 223 218 224 221 214 206 197 192 187 183 190 194 192 189 189
169 176 195 212 279 278 275 274 269 263 256 261 259 259 274 274 289 306 317 307 284 285 283 275 271 259 243 227 217 209 210 214 210 206 202 201 197 189 194 194 195 198 193
184 196 254 274 269 273 271 265 261 260 268 254 236 248 264 270 284 298 308 317 303 292 273 273 270 259 244 232 225 219 223 217 213 207 205 206 204 200 199 199 196 195 198
243 260 262 269 267 266 259 255 261 261 261 245 236 239 257 275 280 290 302 309 313 286 264 269 270 259 247 231 235 225 226 215 208 214 211 210 209 207 203 204 205 204 204
274 277 273 270 267 257 253 250 256 261 256 253 243 243 249 262 276 292 294 306 313 308 268 270 266 258 253 245 230 226 224 220 217 220 220 215 214 211 210 211 211 211 209
265 268 272 277 266 263 262 256 248 263 269 261 254 253 257 260 258 272 287 298 296 302 281 267 267 259 247 235 240 221 219 223 220 219 219 218 217 215 215 214 213 213 211
258 261 276 292 277 278 261 263 259 272 278 274 258 250 249 259 260 263 273 281 287 285 284 268 261 260 257 244 230 228 221 225 227 229 221 219 217 214 214 217 216 215 213
266 282 295 289 271 275 288 267 272 277 279 274 261 249 236 250 258 258 265 275 287 273 267 263 258 257 259 253 237 226 226 226 226 222 218 214 213 213 213 214 216 213 209
334 312 310 315 314 278 277 278 276 278 279 278 269 259 246 251 256 265 265 279 276 269 262 258 252 248 250 247 243 231 228 225 222 221 220 217 214 210 209 209 211 212 210
321 320 317 315 315 303 292 286 272 268 269 269 265 250 251 257 263 270 274 271 281 265 252 259 250 247 238 238 242 236 231 223 220 220 221 218 214 214 211 209 209 209 211
301 290 300 306 294 294 285 280 277 263 265 258 250 255 253 261 269 271 255 254 266 263 249 250 248 242 240 228 231 235 232 225 224 218 212 208 208 209 212 213 212 209 208
283 283 292 294 297 297 296 284 277 269 264 238 250 247 243 250 259 265 262 256 253 249 252 246 237 235 236 230 226 224 228 231 227 220 215 212 211 213 213 213 214 215 216
Height
1440 1442 1446 1449 1453 1454 1457 1460 1462 1465 1468 1470 1471 1474 1475 1475 1475 1474 1474 1474 1472 1470 1468 1469 1465 1465 1464 1466 1465 1463 1461 1461 1460 1459 1459 1459 1458 1458 1459 1460 1460 1461 1463
1438 1440 1443 1446 1449 1452 1454 1456 1459 1460 1462 1464 1466 1468 1468 1469 1471 1468 1467 1467 1465 1464 1463 1461 1458 1456 1454 1455 1454 1455 1455 1454 1453 1453 1453 1454 1453 1453 1453 1453 1454 1455 1458
1437 1438 1439 1440 1442 1443 1446 1449 1451 1455 1458 1461 1463 1463 1463 1464 1466 1463 1460 1461 1459 1457 1454 1452 1450 1452 1452 1450 1449 1447 1447 1446 1448 1447 1447 1446 1445 1445 1446 1447 1449 1451 1455
1430 1432 1433 1434 1436 1440 1444 1445 1446 1449 1452 1455 1456 1457 1458 1460 1458 1455 1452 1450 1449 1451 1449 1447 1445 1444 1443 1443 1442 1442 1441 1442 1443 1442 1441 1439 1438 1438 1440 1442 1445 1447 1452
1424 1427 1429 1431 1435 1437 1440 1442 1442 1445 1447 1448 1448 1452 1454 1454 1451 1447 1445 1443 1441 1438 1439 1439 1438 1437 1435 1437 1436 1435 1437 1437 1437 1436 1434 1433 1432 1432 1434 1437 1441 1443 1448
1415 1418 1421 1423 1427 1431 1433 1436 1439 1440 1440 1441 1445 1446 1449 1445 1441 1438 1436 1435 1436 1433 1430 1430 1430 1431 1431 1432 1431 1432 1432 1432 1430 1429 1427 1427 1427 1427 1429 1432 1435 1439 1446
1411 1412 1415 1417 1421 1423 1427 1431 1434 1435 1434 1439 1440 1442 1442 1439 1435 1433 1431 1429 1428 1429 1427 1424 1423 1424 1425 1426 1427 1426 1427 1426 1424 1423 1422 1422 1423 1423 1426 1428 1432 1436 1438
1402 1404 1408 1411 1415 1420 1425 1428 1430 1429 1432 1433 1435 1435 1433 1432 1429 1428 1426 1425 1423 1421 1424 1421 1418 1420 1418 1420 1421 1421 1422 1420 1419 1418 1417 1418 1419 1420 1423 1427 1430 1434 1440
1397 1400 1403 1405 1411 1415 1418 1423 1424 1423 1424 1428 1428 1427 1426 1424 1424 1424 1422 1421 1420 1418 1418 1417 1415 1416 1414 1414 1415 1416 1417 1415 1414 1414 1413 1414 1415 1416 1420 1425 1429 1435 1442
1393 1397 1398 1400 1407 1412 1417 1417 1420 1420 1420 1422 1422 1420 1420 1419 1419 1418 1418 1416 1414 1413 1414 1413 1410 1412 1410 1409 1411 1413 1412 1411 1411 1411 1411 1412 1413 1415 1419 1424 1428 1434 1440
1389 1392 1397 1401 1405 1408 1412 1415 1416 1416 1416 1418 1417 1415 1413 1411 1410 1410 1412 1409 1407 1405 1407 1406 1405 1406 1405 1405 1407 1409 1409 1409 1409 1408 1409 1411 1413 1416 1421 1426 1430 1435 1441
1390 1391 1394 1398 1402 1405 1408 1409 1410 1411 1411 1410 1410 1409 1408 1407 1405 1405 1405 1402 1402 1401 1402 1400 1399 1400 1400 1401 1403 1404 1405 1406 1407 1407 1409 1411 1414 1418 1423 1428 1433 1438 1442
1386 1390 1392 1395 1398 1400 1402 1403 1405 1404 1406 1404 1405 1406 1404 1404 1399 1400 1398 1398 1399 1396 1397 1395 1393 1395 1396 1397 1399 1401 1402 1404 1405 1406 1408 1411 1415 1420 1425 1431 1435 1440 1445
1383 1387 1393 1396 1398 1398 1397 1398 1400 1400 1399 1401 1400 1400 1399 1399 1398 1394 1395 1394 1395 1394 1391 1389 1390 1391 1392 1394 1396 1398 1400 1402 1404 1406 1408 1412 1416 1421 1426 1431 1435 1440 1445
1378 1384 1389 1390 1392 1394 1395 1396 1394 1393 1395 1395 1397 1395 1394 1395 1394 1392 1390 1390 1392 1390 1386 1385 1387 1387 1388 1390 1393 1396 1398 1401 1402 1405 1408 1411 1416 1421 1426 1431 1436 1440 1444
1379 1382 1386 1387 1390 1391 1390 1390 1388 1388 1387 1387 1390 1392 1390 1391 1390 1389 1389 1387 1387 1385 1383 1383 1384 1385 1386 1388 1391 1394 1397 1399 1401 1403 1406 1410 1413 1418 1423 1429 1435 1439 1442
1378 1379 1380 1381 1383 1384 1383 1387 1385 1384 1382 1384 1384 1386 1385 1386 1386 1385 1386 1384 1383 1381 1381 1381 1382 1383 1384 1386 1389 1392 1395 1398 1400 1402 1405 1408 1412 1416 1421 1426 1433 1437 1441
1374 1375 1375 1373 1373 1376 1377 1382 1379 1379 1379 1381 1381 1381 1380 1382 1383 1383 1382 1382 1380 1379 1379 1380 1380 1381 1382 1384 1387 1389 1393 1396 1398 1400 1403 1406 1409 1413 1418 1423 1428 1434 1438
1369 1371 1370 1368 1367 1369 1370 1374 1373 1374 1376 1378 1376 1378 1377 1377 1380 1380 1380 1379 1378 1377 1377 1378 1378 1379 1380 1382 1384 1387 1390 1393 1396 1398 1400 1403 1406 1410 1414 1419 1425 1430 1435
1367 1366 1368 1364 1365 1365 1367 1367 1368 1369 1371 1373 1373 1373 1374 1374 1375 1377 1376 1376 1376 1376 1376 1376 1376 1377 1378 1380 1382 1384 1387 1391 1393 1396 1398 1400 1403 1407 1411 1415 1420 1425 1430
1364 1364 1364 1362 1363 1364 1365 1365 1365 1365 1366 1368 1368 1369 1369 1370 1371 1372 1373 1373 1374 1373 1373 1374 1374 1375 1376 1377 1379 1382 1385 1388 1390 1392 1395 1397 1401 1404 1407 1411 1416 1420 1426
1362 1362 1361 1361 1361 1362 1363 1363 1362 1363 1363 1364 1365 1365 1366 1367 1368 1369 1369 1370 1371 1371 1371 1372 1372 1373 1374 1375 1377 1379 1382 1384 1387 1389 1392 1395 1398 1401 1405 1408 1412 1417 1422
1361 1361 1361 1360 1359 1360 1360 1360 1360 1361 1360 1362 1363 1362 1363 1364 1365 1365 1366 1367 1367 1368 1368 1369 1370 1371 1372 1373 1375 1377 1379 1382 1385 1387 1390 1393 1396 1399 1402 1406 1409 1413 1418
1361 1361 1359 1358 1358 1358 1358 1357 1357 1358 1358 1360 1360 1360 1360 1361 1361 1362 1362 1363 1364 1364 1365 1366 1367 1368 1370 1372 1373 1375 1377 1380 1382 1385 1388 1390 1394 1397 1400 1403 1407 1410 1414
1359 1358 1357 1357 1356 1356 1354 1353 1354 1355 1356 1357 1357 1357 1357 1357 1358 1358 1359 1360 1360 1361 1362 1363 1364 1366 1368 1369 1372 1374 1376 1378 1380 1383 1385 1388 1391 1395 1398 1401 1404 1408 1411
1357 1356 1354 1353 1353 1352 1351 1351 1351 1352 1353 1353 1354 1354 1354 1354 1355 1356 1356 1356 1357 1358 1359 1360 1361 1363 1365 1367 1369 1371 1374 1376 1379 1381 1383 1386 1389 1392 1395 1399 1402 1405 1408